Content
SEND FEEDBACK

Daily
Averages
Monthly
Summary
Greece

MITILINI, GREECE


Home > Europe > Greece
Elevation: 16 feet     Latitude: 39 04N     Longitude: 026 36E

WEATHER
 
SELECT A DAY
Number of Records: 88,598;   Date Range: 7/9/96 - 7/31/14
 
SHARE

PRINT THIS DATA

[ ← Previous Day ]
WEATHER ALMANAC - MAY 25, 2013
[ Next Day → ]
[ °C ]   °F
Weather ElementAverageHighLow
Temperature73.4 °F80.6 °F (4:50 pm)66.2 °F (2:50 am)
Dewpoint55.5 °F60.8 °F (5:50 am)50 °F (8:50 pm)
Humidity54.2 %83 % (5:50 am)33 % (9:00 pm)
Barometer29.93 in29.96 in (9:00 am)29.89 in (1:50 am)
Wind Speed8.1 mph12.7 mph (11:20 pm)
Weather ElementAverage
Visibility6.7 mi
Wind DirectionS (179.6 °)

Weather ElementTotal
Precipitation---
Cooling Degree Days8.4 (Base 65)
Growing Degree Days23.4 (Base 50)
Averaged from 47 records on May 25, 2013
WEATHER CONDITIONS BREAKOUT
WIND DIRECTION BREAKOUT
WEATHER BY HOUR - MAY 25, 2013
[ °C ]   °F
Local TimeTemperatureDewpointHumidityBarometerVisibilityWind DirectionWind SpeedGust SpeedPrecipitationEventsConditions
1:50 AM68.0 °F55.4 °F64 %29.89 inESE (120°)4.6 mphClear
2:50 AM66.2 °F57.2 °F73 %29.89 inEast (100°)4.6 mphClear
3:00 AM67.0 °F56.0 °F60 %29.91 in6.0 miEast (100°)4.6 mph
3:50 AM66.2 °F57.2 °F73 %29.89 inESE (120°)6.9 mphClear
4:20 AM66.2 °F57.2 °F73 %29.89 inESE (120°)8.1 mphClear
4:50 AM66.2 °F57.2 °F73 %29.89 inSE (130°)9.2 mphClear
5:20 AM66.2 °F59.0 °F78 %29.89 in6.2 miSE (140°)10.4 mphPartly Cloudy
5:50 AM66.2 °F60.8 °F83 %29.89 in6.2 miSE (140°)8.1 mphScattered Clouds
6:20 AM66.2 °F60.8 °F83 %29.92 in6.2 miSouth (170°)4.6 mphPartly Cloudy
6:50 AM68.0 °F60.8 °F78 %29.92 in6.2 miSSE (160°)5.8 mphScattered Clouds
7:20 AM69.8 °F59.0 °F68 %29.92 in6.2 miSSE (150°)9.2 mphScattered Clouds
7:50 AM69.8 °F59.0 °F68 %29.92 in6.2 miSE (140°)8.1 mphScattered Clouds
8:20 AM69.8 °F59.0 °F68 %29.95 in6.2 miSE (140°)8.1 mphScattered Clouds
8:50 AM69.8 °F57.2 °F64 %29.95 in6.2 miSE (130°)9.2 mphPartly Cloudy
9:00 AM71.0 °F58.0 °F54 %29.96 in9.0 miSE (130°)9.2 mphScattered Clouds
9:20 AM71.6 °F57.2 °F60 %29.95 in6.2 miSE (130°)8.1 mphPartly Cloudy
9:50 AM73.4 °F59.0 °F61 %29.95 in6.2 miESE (120°)9.2 mphPartly Cloudy
10:20 AM73.4 °F59.0 °F61 %29.95 in6.2 miESE (110°)9.2 mphPartly Cloudy
10:50 AM73.4 °F60.8 °F65 %29.95 in6.2 miESE (110°)9.2 mphPartly Cloudy
11:20 AM73.4 °F59.0 °F61 %29.95 in6.2 miSSE (160°)5.8 mphPartly Cloudy
11:50 AM75.2 °F59.0 °F57 %29.95 in6.2 miSSE (160°)11.5 mphPartly Cloudy
12:20 PM77.0 °F57.2 °F50 %29.95 in6.2 miSSW (200°)6.9 mphPartly Cloudy
12:50 PM77.0 °F57.2 °F50 %29.95 in6.2 miSSE (160°)5.8 mphPartly Cloudy
1:20 PM78.8 °F55.4 °F44 %29.95 in6.2 miWSW (240°)8.1 mphPartly Cloudy
1:50 PM78.8 °F57.2 °F47 %29.95 in6.2 miSSW (210°)11.5 mphPartly Cloudy
2:20 PM78.8 °F57.2 °F47 %29.92 in6.2 miSW (220°)10.4 mphPartly Cloudy
2:50 PM78.8 °F55.4 °F44 %29.92 in6.2 miSW (220°)11.5 mphPartly Cloudy
3:00 PM79.0 °F56.0 °F35 %29.94 in12.0 miSW (220°)11.5 mphScattered Clouds
3:20 PM78.8 °F55.4 °F44 %29.92 in6.2 miWSW (240°)8.1 mphPartly Cloudy
3:50 PM78.8 °F53.6 °F42 %29.92 in6.2 miSW (230°)10.4 mphPartly Cloudy
4:20 PM78.8 °F53.6 °F42 %29.92 in6.2 miSSW (200°)9.2 mphPartly Cloudy
4:50 PM80.6 °F55.4 °F42 %29.92 in6.2 miSSW (210°)8.1 mphPartly Cloudy
5:20 PM80.6 °F55.4 °F42 %29.92 in6.2 miSW (220°)10.4 mphPartly Cloudy
5:50 PM80.6 °F51.8 °F37 %29.92 inSSW (210°)9.2 mphClear
6:20 PM80.6 °F51.8 °F37 %29.92 inWSW (240°)8.1 mphClear
6:50 PM78.8 °F51.8 °F39 %29.92 inSSW (200°)5.8 mphClear
7:20 PM77.0 °F51.8 °F41 %29.92 inSSW (210°)5.8 mphClear
7:50 PM77.0 °F51.8 °F41 %29.92 inSW (220°)6.9 mphClear
8:20 PM75.2 °F51.8 °F44 %29.92 inSW (230°)5.8 mphClear
8:50 PM73.4 °F50.0 °F44 %29.92 inSW (230°)6.9 mphClear
9:00 PM73.0 °F50.0 °F33 %29.93 in12.0 miSW (230°)6.9 mph
9:20 PM73.4 °F50.0 °F44 %29.92 inSW (230°)5.8 mphClear
9:50 PM71.6 °F50.0 °F46 %29.92 inSouth (170°)8.1 mphClear
10:20 PM71.6 °F50.0 °F46 %29.92 inSW (220°)5.8 mphClear
10:50 PM71.6 °F50.0 °F46 %29.95 inWSW (240°)8.1 mphClear
11:20 PM71.6 °F50.0 °F46 %29.95 inSW (230°)12.7 mphClear
11:50 PM71.6 °F51.8 °F50 %29.95 inSW (230°)11.5 mphClear
Hourly data recorded from LGMT, located miles away from Mitilini, Greece







STORIES FROM OUR PARTNERS